Theta_e
322 321 319 318 317 316 314 314 315 315 316 317 319 320 321 323 326 329 331 333 334 336 337 338 339 340 340 339 338 339 340 341 341 342 340 339 338 337 337 337 337 338 338
316 315 314 313 312 313 312 313 312 313 312 314 314 316 318 318 318 320 326 329 330 329 332 334 335 335 334 334 335 336 337 338 340 341 341 338 337 336 336 336 336 336 337
314 314 312 312 311 312 312 311 311 311 311 312 312 312 313 313 313 316 318 321 320 319 320 324 328 329 331 331 332 334 336 337 337 338 339 338 337 336 335 335 335 335 336
313 312 311 309 311 310 310 309 308 307 307 308 308 308 308 310 311 313 315 322 320 318 314 316 320 323 325 327 329 332 334 332 334 333 333 336 336 335 335 335 335 334 335
312 310 309 308 309 308 308 307 306 307 305 306 305 305 307 309 311 312 320 318 316 315 313 312 313 315 318 320 323 324 325 325 324 325 326 326 328 335 334 334 334 334 334
310 310 309 308 308 307 306 305 304 306 306 304 305 307 307 309 311 317 316 314 313 312 311 310 309 308 313 314 315 317 319 320 320 320 321 322 323 325 335 334 333 331 334
309 308 307 307 307 305 304 304 303 303 304 303 301 300 305 313 310 311 316 312 311 310 308 307 307 307 307 311 310 310 311 312 313 316 316 317 318 320 323 334 334 334 333
307 306 306 305 305 304 303 301 301 300 302 302 297 299 299 304 302 311 311 310 308 305 304 307 305 305 305 308 306 305 305 306 307 309 312 313 314 317 319 321 328 332 332
305 305 304 304 303 302 300 299 299 299 296 300 300 297 294 293 297 303 305 302 301 302 302 302 304 305 305 305 300 299 301 300 302 305 308 309 311 313 315 318 320 324 331
303 304 303 302 301 300 298 298 299 298 297 295 298 299 299 297 293 291 298 300 300 300 300 301 300 300 299 299 298 299 298 298 299 302 304 306 308 310 311 315 317 319 324
301 301 300 299 298 297 297 296 296 296 296 294 294 294 295 295 296 291 290 293 296 298 300 299 299 297 297 297 294 296 298 299 298 301 302 305 306 307 309 311 314 317 320
298 298 298 297 296 296 295 295 296 295 294 294 294 294 293 291 290 290 288 289 289 293 296 297 297 296 296 295 296 297 299 297 298 299 301 303 305 306 308 309 311 314 316
295 296 296 295 294 294 294 294 293 294 293 292 292 292 293 292 292 291 288 287 286 291 295 296 296 294 296 294 293 297 298 296 296 298 299 301 303 303 304 305 307 309 311
294 295 294 294 294 293 293 293 292 292 292 291 291 291 290 291 291 290 288 286 284 287 290 290 294 293 292 293 294 297 295 295 295 296 297 298 299 300 300 301 302 305 306
294 294 294 292 292 292 291 292 290 290 291 289 290 289 288 289 290 290 289 288 286 282 284 288 288 291 291 291 294 292 294 294 294 295 295 295 297 297 297 297 298 299 301
293 293 292 291 291 290 290 290 289 288 288 288 288 287 286 287 288 288 287 288 287 285 282 287 287 290 290 290 291 291 293 293 293 293 292 292 293 294 294 295 294 295 297
293 292 291 290 290 289 289 289 287 287 287 287 286 286 285 286 286 287 287 287 285 285 282 284 287 288 288 286 287 290 292 291 291 292 291 291 290 290 291 291 292 293 294
292 291 290 289 289 289 288 287 286 286 285 285 285 284 283 285 284 284 284 284 284 284 282 281 284 285 285 284 285 286 290 291 291 291 290 289 289 289 289 289 289 290 291
290 290 290 289 288 288 287 286 286 285 285 284 284 282 280 280 279 279 281 281 281 283 283 282 281 283 283 282 282 284 287 289 289 291 291 289 288 287 287 287 288 288 289
289 289 289 288 288 287 286 286 286 285 284 283 283 281 279 277 276 275 278 278 278 279 281 280 281 280 279 278 279 278 281 286 282 285 287 290 288 287 286 286 287 287 288
290 289 288 287 286 284 282 282 284 283 282 282 282 281 279 279 278 277 275 275 275 275 277 278 277 277 275 273 273 276 278 280 280 279 281 286 287 283 283 285 285 286 287
288 287 286 286 281 281 281 283 285 282 281 280 280 280 279 278 278 277 277 277 276 272 274 274 274 272 272 272 273 275 276 277 279 279 278 282 284 283 281 281 284 284 285
286 284 283 281 279 278 280 282 283 281 279 277 277 278 278 277 276 277 278 278 277 276 276 273 271 269 270 271 273 274 276 277 276 275 277 279 281 282 281 282 285 283 284
283 282 281 281 279 278 279 281 281 277 275 278 273 273 272 270 270 272 272 271 270 268 269 272 268 266 268 271 274 275 276 279 276 274 274 271 275 277 282 280 283 284 283
282 281 280 280 277 273 278 278 276 276 275 275 271 269 269 267 275 277 269 267 267 266 275 275 275 278 278 278 277 274 273 274 275 269 272 269 273 276 280 277 278 283 282
281 282 281 282 280 273 277 277 277 276 274 274 274 270 275 269 275 275 267 266 265 265 267 271 273 273 276 273 277 272 272 270 270 267 270 270 273 274 273 275 276 276 277
Wind_Speed
4 4 3 4 4 5 5 5 5 5 5 6 6 5 6 7 7 4 3 4 5 4 5 5 7 8 11 12 12 11 10 11 13 16 18 18 18 15 12 15 16 16 17
3 4 4 5 5 4 3 4 5 4 4 5 5 6 5 4 6 6 4 3 9 15 13 10 8 5 3 4 7 12 13 11 11 11 15 17 17 17 20 15 15 17 18
4 5 4 5 3 3 6 5 5 5 5 6 6 6 6 6 5 6 5 5 10 19 18 15 14 13 12 11 9 7 8 11 11 11 10 13 16 17 16 16 15 23 21
4 5 5 4 4 5 5 5 4 4 5 5 4 5 4 6 7 6 5 7 5 5 12 17 17 17 18 16 16 16 16 18 17 17 16 12 14 17 19 18 20 22 23
4 5 4 3 3 4 4 4 4 4 4 4 7 6 6 5 5 4 10 11 8 7 5 10 14 15 16 17 18 18 19 18 18 19 20 22 22 18 19 20 19 16 23
5 5 4 4 4 5 5 5 5 5 2 4 7 7 5 5 4 5 6 7 6 6 5 5 4 6 11 15 17 18 19 20 19 18 18 22 23 24 19 24 23 31 31
5 5 4 4 4 5 5 6 4 6 5 6 5 6 4 4 6 4 5 5 5 5 5 3 3 3 2 10 13 19 21 22 23 23 18 17 20 22 27 21 26 26 21
5 6 5 5 6 4 6 6 6 5 3 5 4 4 4 2 6 4 4 5 7 5 5 2 3 4 2 3 8 19 21 22 22 21 22 19 18 19 20 19 12 16 19
6 6 6 5 5 5 4 5 5 6 4 5 6 3 4 3 6 4 5 5 6 5 5 6 6 9 8 7 10 12 22 22 21 22 21 21 19 18 19 17 18 20 19
6 6 6 6 6 4 5 4 5 4 4 4 3 5 3 2 3 5 5 5 6 5 5 6 7 10 10 7 15 20 24 21 20 21 21 22 21 20 19 19 17 19 20
6 6 6 6 6 4 4 6 6 5 4 4 3 3 4 3 4 1 4 7 6 6 3 6 6 5 7 6 8 13 20 17 19 21 23 22 18 18 18 19 18 17 18
5 5 6 5 5 5 5 4 4 6 5 5 4 4 3 2 3 3 3 5 5 5 4 5 6 5 4 4 12 19 15 15 17 20 22 21 18 16 17 18 19 18 17
5 3 6 5 4 4 3 4 3 5 4 4 6 4 3 3 3 3 3 3 3 6 1 4 5 4 5 5 8 16 15 17 20 21 19 21 20 19 20 18 18 18 19
5 5 5 5 4 4 3 4 3 2 4 3 5 5 4 3 3 2 2 3 4 3 4 5 4 4 4 4 12 16 8 18 18 19 18 20 20 19 20 20 19 19 19
5 5 5 5 5 4 3 4 4 4 4 5 5 5 4 5 4 4 3 2 2 3 4 5 4 5 5 4 11 6 8 18 19 17 19 22 21 22 21 22 22 21 20
6 5 5 6 5 4 5 4 5 3 5 3 4 5 5 4 4 2 3 3 3 3 3 5 4 5 5 6 10 6 8 13 17 17 21 22 24 25 25 24 24 23 22
5 6 7 6 5 5 5 5 4 4 5 5 5 6 7 7 5 5 4 3 3 3 3 4 4 4 6 8 7 5 6 6 6 16 18 20 22 24 25 26 26 26 24
4 5 5 5 5 6 5 4 6 5 6 6 7 7 7 7 7 7 5 5 5 5 3 5 3 3 8 9 8 5 7 6 4 10 14 18 22 23 24 25 25 26 26
5 6 5 6 5 5 5 5 5 6 7 6 7 8 8 9 8 7 8 6 5 7 5 3 4 4 7 10 9 9 6 6 6 9 9 15 20 23 23 24 24 25 26
5 5 6 6 5 4 5 5 5 6 6 6 7 9 8 7 6 7 7 9 8 7 6 5 4 5 8 10 7 7 5 6 5 7 10 8 15 20 22 23 24 25 26
5 6 6 5 5 8 8 8 3 6 6 6 6 9 6 6 6 8 5 6 8 7 7 6 7 6 7 7 8 7 5 3 3 7 5 6 4 7 9 15 19 24 25
6 6 6 6 9 8 8 9 6 7 7 7 6 6 7 8 5 7 10 11 10 5 8 7 6 7 8 8 8 8 5 5 2 8 5 6 6 6 5 7 22 22 23
7 7 9 11 10 7 9 12 15 7 7 5 6 5 5 6 6 5 6 10 12 13 12 7 6 4 4 6 8 10 9 7 4 6 5 4 6 4 5 8 19 22 21
6 6 6 8 9 5 9 9 11 5 4 8 7 5 4 3 4 3 4 4 5 3 3 3 2 2 3 4 7 8 9 2 7 6 9 3 3 3 6 6 21 21 22
8 6 5 7 9 4 7 5 2 4 5 7 5 3 4 3 9 8 4 5 4 4 1 0 1 6 10 14 15 8 10 8 4 3 8 2 4 4 4 6 7 21 22
7 6 6 7 13 6 6 4 4 3 5 4 7 4 9 6 10 11 5 4 4 1 3 4 2 5 5 7 12 6 6 7 4 4 4 5 5 4 3 3 7 7 7
Wind_Direction
54 46 34 39 45 26 13 358 15 348 330 342 331 315 319 336 328 321 324 39 92 81 31 347 338 317 301 297 300 292 285 265 250 234 232 233 226 223 229 212 202 202 202
22 63 51 52 35 44 343 360 360 329 327 313 324 321 317 298 293 298 302 319 56 71 65 52 48 58 32 335 325 316 307 293 286 267 243 233 227 204 211 216 224 209 207
48 78 65 46 14 19 31 11 352 349 345 344 331 349 319 316 322 316 315 45 77 59 55 54 56 48 45 19 5 347 328 314 294 290 283 264 224 203 196 217 234 238 212
42 63 77 52 340 26 40 4 3 340 343 326 343 307 311 308 296 277 261 85 86 100 62 52 51 55 52 43 33 32 42 38 29 18 2 310 263 229 211 212 222 229 224
40 88 64 37 12 45 61 19 352 350 328 4 325 315 284 267 283 315 81 71 62 50 72 84 66 48 49 48 41 33 28 30 29 25 13 2 354 289 226 211 211 237 242
31 76 80 28 52 41 36 18 360 344 339 10 313 294 302 295 299 38 79 82 87 75 70 54 55 75 49 41 38 33 24 17 14 18 15 5 356 350 266 224 216 219 230
56 42 76 60 48 70 40 28 349 347 13 3 338 332 283 110 42 15 95 79 50 116 116 89 83 66 49 70 41 29 22 15 5 358 5 8 359 355 3 230 219 214 215
56 65 42 65 29 67 57 39 9 359 3 34 353 294 2 27 3 51 36 80 53 29 9 76 122 118 75 72 62 34 19 12 2 354 349 355 356 350 356 349 323 239 221
76 80 71 56 58 50 61 49 11 37 348 16 41 41 357 5 327 11 25 49 33 43 31 9 13 25 39 52 64 25 14 10 360 354 345 344 344 343 348 346 344 338 240
70 67 53 62 44 59 36 40 39 10 11 20 16 5 24 292 9 332 345 24 11 42 63 41 27 35 25 23 36 16 5 359 359 354 345 338 334 337 337 337 340 337 345
82 69 64 56 55 49 57 43 50 22 32 25 20 358 0 335 62 328 310 350 353 340 42 91 67 40 34 20 43 3 351 3 3 357 348 346 338 334 337 335 332 329 328
93 82 95 82 57 57 39 61 49 48 24 48 357 23 47 24 8 353 334 325 341 312 310 91 91 67 39 31 25 3 18 25 15 6 360 2 5 358 354 346 341 336 332
114 108 97 74 80 68 66 94 55 47 35 49 20 6 356 45 8 341 347 352 309 296 17 75 87 69 45 54 25 5 31 30 21 9 10 14 14 14 10 5 359 354 348
105 121 106 104 98 76 59 51 66 64 71 36 63 36 327 42 23 17 357 339 334 325 355 21 60 48 46 55 24 7 42 33 23 17 22 25 26 25 21 16 14 10 7
143 120 117 112 106 94 64 87 81 22 55 37 50 36 354 23 344 343 13 3 343 314 308 14 339 16 26 41 30 5 55 42 23 25 37 35 32 33 31 23 20 17 12
106 141 121 110 94 87 68 54 74 39 59 53 49 45 20 358 318 3 358 332 326 302 286 354 341 348 18 29 18 17 26 50 25 40 45 42 39 36 35 30 24 20 16
164 143 122 128 122 98 65 89 103 42 70 63 36 49 22 349 358 356 357 331 353 328 320 321 309 324 39 41 7 10 42 68 37 46 47 47 45 41 37 35 27 25 24
155 119 119 116 102 85 82 74 58 59 53 48 46 48 29 9 6 358 336 352 350 334 339 305 323 341 59 26 359 358 24 42 68 49 54 46 44 43 40 36 30 27 25
124 126 119 108 104 109 109 87 86 76 63 48 53 57 32 26 14 351 323 17 7 335 308 338 309 25 48 26 355 351 24 35 24 33 47 63 57 45 42 36 32 29 26
146 123 103 95 119 112 97 80 86 95 97 77 78 75 59 51 19 350 6 7 3 342 342 355 12 22 38 19 358 346 342 57 22 13 2 78 64 48 43 37 33 30 27
156 121 117 137 100 71 41 15 39 71 66 74 70 98 77 81 62 45 42 21 17 355 13 354 28 19 27 8 356 333 333 355 90 38 346 24 70 67 35 37 34 29 26
106 102 146 120 86 80 59 26 5 89 65 54 45 53 80 43 74 72 65 59 48 28 18 9 37 23 19 0 336 326 330 349 9 33 331 30 5 80 54 27 41 34 27
99 78 86 86 84 86 83 67 65 78 78 67 51 23 55 54 17 9 46 61 64 43 38 40 43 26 358 333 327 324 329 328 63 356 347 32 7 26 76 46 42 34 30
103 104 98 108 105 98 99 94 103 95 89 78 59 20 68 44 16 21 38 42 74 83 51 45 74 276 262 304 344 325 326 330 108 47 14 14 329 334 76 41 37 37 26
133 134 123 122 113 102 120 123 334 117 113 100 90 73 54 20 40 40 73 63 68 355 165 104 16 34 34 32 26 2 8 14 25 26 17 322 333 331 61 55 28 28 25
142 140 138 129 125 117 142 148 9 140 126 122 132 90 65 66 52 56 36 61 54 334 353 2 30 27 47 40 40 36 15 20 12 16 341 354 344 349 360 59 38 18 10